Regional Weather Roundup
Issued by NWS

Home | Current Version | Previous Version | Text Only | Print | Product List | Glossary On
Versions: 1 2 3 4 5 6 7 8 9 10 11 12 13 14 15 16 17 18 19 20 21 22 23 24 25 26 27 28 29 30 31 32 33 34 35 36 37 38 39 40 41 42 43 44 45 46 47 48 49 50
204
ASUS43 KLSX 010410
RWRMO

WEATHER SUMMARY FOR MISSOURI
NATIONAL WEATHER SERVICE SPRINGFIELD MO
1100 PM CDT TUE MAY 31 2016

NOTE: "FAIR" INDICATES FEW OR NO CLOUDS BELOW 12,000 FEET WITH NO
       SIGNIFICANT WEATHER AND/OR OBSTRUCTIONS TO VISIBILITY.
       CURRENT SKY AND/OR WEATHER CONDITIONS ARE NOT AVAILABLE FOR
       CHILLICOTHE AND FARMINGTON.

MOZ001>031-035>038-043-044-053-054-010500-
...NORTHERN AND WESTERN MISSOURI...

CITY           SKY/WX    TMP DP  RH WIND       PRES   REMARKS
KANSAS CTY INT MOCLDY    68  64  87 SW5       29.96R
KANSAS C DTWN  CLOUDY    72  65  78 CALM      29.95R
LEE`S SUMMIT   CLOUDY    71  65  81 CALM      29.97R
ST JOSEPH      PTCLDY    67  62  84 CALM      29.95R
CHILLICOTHE      N/A     71  63  75 CALM      29.95R
KIRKSVILLE     CLOUDY    68  65  90 CALM      29.94F

$$
MOZ066>068-077>081-088>096-101>105-010500-
...SOUTHWEST MISSOURI...

CITY           SKY/WX    TMP DP  RH WIND       PRES   REMARKS
SPRINGFIELD    MOCLDY    70  64  81 NW3       29.96R
JOPLIN         LGT RAIN  66  64  93 NE5       29.98R

$$
MOZ032>034-039>042-045>050-055>058-069>072-010500-
...CENTRAL MISSOURI...

CITY           SKY/WX    TMP DP  RH WIND       PRES   REMARKS
COLUMBIA       PTCLDY    71  65  81 CALM      29.93F
JEFFERSON CITY MOCLDY    71  66  84 CALM      29.92S
ROLLA          MOCLDY    71  65  81 S3        29.94R
SEDALIA        CLOUDY    70  67  90 CALM      29.95R
WHITEMAN AFB   MOCLDY    70  70 100 CALM      29.93S
WARRENSBURG    CLOUDY    70  64  83 W3        29.94F

$$
MOZ051-052-059>065-010500-
...EAST CENTRAL MISSOURI...

CITY           SKY/WX    TMP DP  RH WIND       PRES   REMARKS
ST LOUIS INTL  CLOUDY    79  63  57 SE7       29.94R
SPIRIT OF STL  CLOUDY    72  69  90 CALM      29.92S
ST CHARLES     PTCLDY    73  68  84 NE3       29.92R

$$
MOZ072>076-082>087-097>100-106>115-010500-
...SOUTH CENTRAL AND SOUTHEAST MISSOURI...

CITY           SKY/WX    TMP DP  RH WIND       PRES   REMARKS
CAPE GIRARDEAU CLOUDY    71  68  90 CALM      29.93S
FARMINGTON     MOCLDY    68  65  90 CALM      29.96S
POPLAR BLUFF   CLOUDY    72  70  93 N3        29.92S
WEST PLAINS    CLOUDY    70  66  87 CALM      29.97R

$$




USA.gov is the U.S. government's official web portal to all federal, state and local government web resources and services.